[[{"header":{"parameterUnit":"m.s-1","parameterCategory":1,"la1":30.2991,"la2":30.254,"lo1":-89.0895,"lo2":-89.0444,"dy":0.0017,"dx":0.0017,"nx":28,"ny":28,"refTime":"2025-06-11T09:00:00:Z","depth":0,"parameterNumber":2,"parameterNumberName":"U-component_of_WINDS"},"data":[0,0,0,0,0,0,0,0,0,0,0,0,0,0,0,0,0,0,0,0,0,0,0,0,0,0,0,0,0,0,0,0,0,0,0,0,0,0,0,0,0,0,0,0,0,0,0,0,0,0,0,0,0,0,0,0,0,0,-0.8384,-0.8385,0,-0.8497,-0.8498,-0.8499,-0.8546,-0.8546,-0.8546,-0.8545,-0.8661,-0.8664,-0.8668,0,0,0,0,0,0,0,0,0,0,0,0,0,-0.8206,-0.8209,-0.8384,-0.8385,-0.8386,-0.8496,-0.8498,-0.85,-0.8546,-0.8546,-0.8546,-0.8545,-0.866,-0.8664,-0.8668,0,0,0,0,0,0,0,0,0,0,0,0,0,-0.8298,-0.821,-0.8383,-0.8423,-0.8428,-0.8496,-0.8498,-0.85,-0.8546,-0.8546,-0.8546,-0.8545,-0.8659,-0.8664,-0.8669,-0.8706,0,0,-0.8684,-0.8686,0,0,0,0,0,0,0,0,-0.8292,-0.8304,-0.8416,-0.842,-0.8426,-0.8507,-0.8478,-0.8569,-0.8546,-0.8501,-0.8545,-0.8545,-0.861,-0.8619,-0.8641,-0.8712,-0.8717,-0.8684,-0.8687,-0.8689,-0.8691,0,0,0,0,0,0,0,-0.8286,-0.83,-0.8428,-0.8417,-0.8423,-0.8434,-0.8447,-0.8495,-0.8556,-0.8505,-0.8509,-0.8521,-0.8613,-0.8636,-0.8644,-0.8718,-0.8684,-0.8688,-0.8691,-0.8693,-0.8823,-0.8823,0,0,0,0,0,0,-0.8273,-0.8294,-0.8425,-0.8432,-0.8357,-0.8438,-0.8452,-0.8481,-0.8556,-0.8567,-0.8522,-0.8523,-0.8628,-0.8638,-0.8648,-0.8696,-0.8689,-0.8694,-0.8697,-0.8822,-0.8823,-0.8823,0,0,0,0,0,0,-0.8269,-0.8285,-0.842,-0.8364,-0.8382,-0.8441,-0.8474,-0.8484,-0.8507,-0.8568,-0.8579,-0.8535,-0.8628,-0.8641,-0.8691,-0.8701,-0.8696,-0.8701,-0.8822,-0.8822,-0.8823,-0.8793,0,0,0,0,0,0,-0.8264,-0.8283,-0.8298,-0.8364,-0.8385,-0.8461,-0.8474,-0.8486,-0.8515,-0.8519,-0.8583,-0.8594,-0.8629,-0.8683,-0.8696,-0.8708,-0.8704,-0.8821,-0.8822,-0.8823,-0.8793,-0.8792,-0.8791,0,0,0,0,0,-0.8258,-0.8286,-0.8299,-0.8315,-0.8406,-0.8462,-0.8474,-0.8514,-0.8516,-0.8532,-0.8571,-0.8592,-0.8697,-0.8688,-0.8702,-0.8716,-0.8821,-0.8822,-0.8823,-0.8793,-0.8792,-0.8791,0,0,0,0,0,0,-0.8221,-0.8295,-0.8311,-0.8361,-0.8405,-0.847,-0.8491,-0.8512,-0.8556,-0.8557,-0.8604,-0.8618,-0.8663,-0.8695,-0.8683,-0.8755,-0.8761,-0.8765,-0.8733,-0.8733,-0.8732,-0.8724,-0.8709,0,0,0,0,0,-0.8219,-0.8259,-0.8321,-0.836,-0.8381,-0.8432,-0.8458,-0.8484,-0.8531,-0.855,-0.8593,-0.8638,-0.8681,-0.8708,-0.8752,-0.8797,-0.8811,-0.8813,-0.8812,-0.8811,-0.8815,-0.8839,-0.8841,-0.8827,-0.8827,-0.8827,0,0,-0.8215,-0.826,-0.8283,-0.8353,-0.839,-0.843,-0.8447,-0.8489,-0.8518,-0.8557,-0.8606,-0.8638,-0.8691,-0.8738,-0.8761,-0.8766,-0.8821,-0.8813,-0.8812,-0.8816,-0.8841,-0.8842,-0.8843,-0.8827,-0.8827,-0.8827,0,0,-0.8228,-0.8266,-0.8302,-0.8338,-0.8393,-0.8426,-0.8434,-0.8496,-0.8519,-0.8568,-0.8597,-0.8632,-0.8706,-0.8742,-0.877,-0.8793,-0.8813,-0.8805,-0.8802,-0.8825,-0.8826,-0.8828,-0.8835,-0.8837,-0.8808,-0.8808,-0.8808,0,-0.8216,-0.8277,-0.8317,-0.8357,-0.8386,-0.8421,-0.8457,-0.849,-0.8556,-0.8576,-0.8579,-0.8671,-0.8709,-0.8764,-0.8769,-0.8791,-0.8801,-0.8799,-0.8823,-0.8825,-0.8826,-0.8834,-0.8837,-0.8807,-0.8807,-0.8807,-0.8807,0,-0.8259,-0.8301,-0.8322,-0.8385,-0.8417,-0.8454,-0.8499,-0.8526,-0.8549,-0.8581,-0.863,-0.8677,-0.8729,-0.8744,-0.8767,-0.8802,-0.8802,-0.8814,-0.8821,-0.8826,-0.8833,-0.8837,-0.8805,-0.8805,-0.8806,-0.8806,0,0,-0.8255,-0.8337,-0.8344,-0.8372,-0.8434,-0.8466,-0.8504,-0.8555,-0.8576,-0.862,-0.8652,-0.8712,-0.8722,-0.8754,-0.8781,-0.8801,-0.8815,-0.881,-0.8812,-0.8809,-0.8855,-0.8846,-0.8849,-0.8828,-0.8829,-0.8829,-0.885,0,-0.8276,-0.8346,-0.8382,-0.8436,-0.8473,-0.8506,-0.8538,-0.8579,-0.861,-0.8646,-0.8679,-0.8721,-0.8731,-0.875,-0.8772,-0.8809,-0.8825,-0.8808,-0.8858,-0.886,-0.8845,-0.8853,-0.8845,-0.8862,-0.8853,-0.8854,-0.8854,0,-0.8311,-0.8353,-0.841,-0.8465,-0.8483,-0.8512,-0.856,-0.8594,-0.864,-0.866,-0.8694,-0.872,-0.876,-0.8762,-0.8817,-0.8804,-0.8827,-0.8847,-0.8849,-0.8856,-0.8858,-0.886,-0.8869,-0.8871,-0.886,-0.8859,-0.8859,0,-0.8301,-0.8372,-0.8415,-0.8438,-0.8504,-0.8523,-0.8551,-0.8597,-0.8624,-0.8665,-0.8683,-0.8729,-0.8754,-0.8788,-0.8825,-0.8824,-0.8876,-0.8882,-0.8894,-0.8893,-0.8905,-0.8903,-0.8917,-0.8918,-0.8918,-0.8918,-0.8918,0,-0.8321,-0.8355,-0.8412,-0.8438,-0.8476,-0.8516,-0.8552,-0.8583,-0.8623,-0.8655,-0.8685,-0.8715,-0.8762,-0.8797,-0.8826,-0.8866,-0.8877,-0.8895,-0.8902,-0.8892,-0.889,-0.8909,-0.8908,-0.8919,-0.8918,-0.8918,-0.8918,0,-0.8318,-0.8357,-0.8406,-0.8463,-0.8478,-0.8504,-0.8552,-0.8579,-0.8609,-0.865,-0.8661,-0.871,-0.8752,-0.8792,-0.8849,-0.8869,-0.8909,-0.8919,-0.8893,-0.8898,-0.8907,-0.8906,-0.8933,-0.8939,-0.8935,-0.8935,-0.8935,0,-0.8329,-0.8355,-0.8414,-0.8438,-0.8465,-0.8503,-0.853,-0.857,-0.8597,-0.865,-0.8669,-0.8714,-0.8752,-0.8818,-0.8858,-0.8901,-0.8912,-0.8918,-0.8919,-0.8907,-0.8912,-0.891,-0.8912,-0.8918,-0.8918,-0.8918,-0.8918,0,-0.8343,-0.836,-0.8399,-0.8443,-0.8475,-0.8512,-0.855,-0.8567,-0.8614,-0.8642,-0.8686,-0.8715,-0.8772,-0.8815,-0.8862,-0.8891,-0.8912,-0.8917,-0.8922,-0.8913,-0.8897,-0.8905,-0.8892,-0.8916,-0.8917,-0.8917,-0.8917,-0.8917,-0.8347,-0.8371,-0.8416,-0.8457,-0.8489,-0.8524,-0.8551,-0.8584,-0.8621,-0.867,-0.8691,-0.8734,-0.8777,-0.8843,-0.887,-0.8905,-0.8909,-0.8917,-0.8919,-0.892,-0.8918,-0.889,-0.8913,-0.8914,-0.8914,-0.8914,-0.8914,0,-0.8363,-0.8393,-0.843,-0.8481,-0.8513,-0.8528,-0.8571,-0.8596,-0.8634,-0.8672,-0.8708,-0.8757,-0.8798,-0.8841,-0.8884,-0.8903,-0.8914,-0.8913,-0.8913,-0.8919,-0.8911,-0.8903,-0.8904,-0.8904,-0.8904,-0.8904,-0.8904,-0.8904,-0.8375,-0.8416,-0.8438,-0.8495,-0.8525,-0.8568,-0.859,-0.8621,-0.8652,-0.8705,-0.8739,-0.8766,-0.8805,-0.8851,-0.889,-0.8901,-0.8916,-0.8913,-0.8926,-0.8919,-0.8919,-0.892,-0.8912,-0.8915,-0.8915,-0.8931,-0.8931,-0.8931]},{"header":{"parameterUnit":"m.s-1","parameterCategory":1,"la1":30.2991,"la2":30.254,"lo1":-89.0895,"lo2":-89.0444,"dy":0.0017,"dx":0.0017,"nx":28,"ny":28,"refTime":"2025-06-11T09:00:00:Z","depth":0,"parameterNumber":3,"parameterNumberName":"V-component_of_WINDS"},"data":[0,0,0,0,0,0,0,0,0,0,0,0,0,0,0,0,0,0,0,0,0,0,0,0,0,0,0,0,0,0,0,0,0,0,0,0,0,0,0,0,0,0,0,0,0,0,0,0,0,0,0,0,0,0,0,0,0,0,-1.6399,-1.64,0,-1.6446,-1.6447,-1.6447,-1.6461,-1.6461,-1.6461,-1.6461,-1.6505,-1.6506,-1.6508,0,0,0,0,0,0,0,0,0,0,0,0,0,-1.6318,-1.6319,-1.6399,-1.64,-1.64,-1.6446,-1.6447,-1.6447,-1.6461,-1.6461,-1.6461,-1.6461,-1.6505,-1.6506,-1.6508,0,0,0,0,0,0,0,0,0,0,0,0,0,-1.6357,-1.6319,-1.6399,-1.6413,-1.6415,-1.6446,-1.6447,-1.6447,-1.6461,-1.6461,-1.6461,-1.646,-1.6504,-1.6506,-1.6508,-1.6527,0,0,-1.6514,-1.6515,0,0,0,0,0,0,0,0,-1.6355,-1.636,-1.641,-1.6412,-1.6414,-1.6448,-1.6434,-1.6474,-1.6461,-1.6444,-1.6461,-1.646,-1.6486,-1.6489,-1.6499,-1.653,-1.6531,-1.6515,-1.6516,-1.6517,-1.6517,0,0,0,0,0,0,0,-1.6352,-1.6358,-1.6418,-1.6411,-1.6413,-1.6415,-1.6421,-1.6442,-1.6466,-1.6445,-1.6446,-1.6452,-1.6487,-1.6497,-1.65,-1.6532,-1.6515,-1.6516,-1.6518,-1.6518,-1.6578,-1.6579,0,0,0,0,0,0,-1.6348,-1.6356,-1.6416,-1.6419,-1.6383,-1.6417,-1.6423,-1.6437,-1.6466,-1.647,-1.6452,-1.6452,-1.6493,-1.6498,-1.6502,-1.6525,-1.6517,-1.6519,-1.652,-1.6578,-1.6578,-1.6579,0,0,0,0,0,0,-1.6346,-1.6353,-1.6414,-1.6388,-1.6396,-1.6419,-1.6435,-1.6438,-1.6448,-1.6471,-1.6475,-1.6458,-1.6493,-1.6499,-1.6521,-1.6527,-1.652,-1.6521,-1.6578,-1.6578,-1.6579,-1.6572,0,0,0,0,0,0,-1.6344,-1.6352,-1.6361,-1.6388,-1.6397,-1.6434,-1.6435,-1.6439,-1.6452,-1.6453,-1.6478,-1.6481,-1.6493,-1.6517,-1.6523,-1.6529,-1.6523,-1.6577,-1.6578,-1.6578,-1.6572,-1.6573,-1.6573,0,0,0,0,0,-1.6341,-1.6357,-1.6362,-1.6369,-1.6409,-1.6435,-1.644,-1.6454,-1.6453,-1.6461,-1.6475,-1.6481,-1.6525,-1.652,-1.6526,-1.6533,-1.6577,-1.6578,-1.6578,-1.6572,-1.6572,-1.6573,0,0,0,0,0,0,-1.633,-1.6361,-1.6366,-1.6393,-1.6411,-1.6437,-1.6448,-1.6454,-1.6473,-1.6473,-1.6488,-1.6494,-1.6514,-1.6526,-1.6519,-1.6552,-1.6551,-1.6553,-1.6544,-1.6545,-1.6545,-1.6542,-1.6525,0,0,0,0,0,-1.6331,-1.635,-1.6376,-1.6396,-1.6405,-1.6425,-1.6437,-1.6446,-1.6465,-1.6473,-1.6489,-1.6506,-1.6523,-1.6535,-1.6552,-1.6573,-1.6578,-1.6581,-1.6582,-1.6582,-1.6583,-1.6594,-1.6595,-1.6581,-1.6581,-1.6581,0,0,-1.6333,-1.6352,-1.6363,-1.6395,-1.641,-1.6428,-1.6431,-1.6451,-1.6464,-1.6475,-1.6497,-1.6509,-1.6529,-1.655,-1.656,-1.656,-1.6588,-1.6583,-1.6583,-1.6584,-1.6595,-1.6596,-1.6597,-1.6582,-1.6582,-1.6582,0,0,-1.6345,-1.6363,-1.6381,-1.6396,-1.6419,-1.6431,-1.6436,-1.646,-1.6469,-1.6491,-1.6499,-1.6514,-1.6545,-1.6558,-1.6569,-1.6584,-1.6589,-1.6589,-1.6591,-1.6601,-1.6602,-1.6603,-1.6607,-1.6608,-1.659,-1.659,-1.659,0,-1.6344,-1.6373,-1.6389,-1.6408,-1.642,-1.6432,-1.6449,-1.6462,-1.6489,-1.6497,-1.6497,-1.6534,-1.6549,-1.6572,-1.6576,-1.6584,-1.6588,-1.6586,-1.6601,-1.6602,-1.6603,-1.6607,-1.6608,-1.659,-1.659,-1.659,-1.659,0,-1.637,-1.639,-1.6401,-1.6428,-1.6442,-1.6459,-1.6476,-1.6488,-1.6495,-1.6507,-1.6528,-1.6546,-1.6566,-1.6572,-1.658,-1.6596,-1.6595,-1.6598,-1.6597,-1.6604,-1.6608,-1.6609,-1.6589,-1.659,-1.659,-1.659,0,0,-1.6378,-1.6412,-1.6416,-1.6427,-1.6453,-1.6467,-1.6484,-1.6505,-1.6514,-1.6532,-1.6546,-1.657,-1.6572,-1.6584,-1.6593,-1.6601,-1.661,-1.6602,-1.6603,-1.6602,-1.6627,-1.6625,-1.6627,-1.6613,-1.6614,-1.6614,-1.6625,0,-1.6393,-1.6426,-1.644,-1.6465,-1.6482,-1.6492,-1.6507,-1.6523,-1.6534,-1.6549,-1.656,-1.6577,-1.6579,-1.6586,-1.6595,-1.6607,-1.6615,-1.6606,-1.6625,-1.6625,-1.662,-1.6629,-1.6628,-1.6638,-1.6627,-1.6628,-1.6628,0,-1.6415,-1.6434,-1.6461,-1.6483,-1.649,-1.6504,-1.6522,-1.6537,-1.6554,-1.6562,-1.6574,-1.6582,-1.6598,-1.6596,-1.6618,-1.6612,-1.662,-1.6627,-1.6627,-1.6629,-1.6627,-1.6631,-1.6642,-1.6643,-1.6631,-1.663,-1.663,0,-1.6417,-1.6448,-1.6469,-1.6478,-1.6504,-1.6513,-1.6524,-1.6541,-1.6552,-1.6568,-1.6575,-1.6592,-1.6601,-1.6614,-1.6625,-1.6623,-1.6645,-1.6644,-1.665,-1.665,-1.6655,-1.6654,-1.6666,-1.666,-1.666,-1.666,-1.666,0,-1.6432,-1.6448,-1.647,-1.6482,-1.6499,-1.6514,-1.653,-1.6542,-1.6556,-1.657,-1.6579,-1.6591,-1.6606,-1.6619,-1.6628,-1.6644,-1.6648,-1.6653,-1.6655,-1.6652,-1.6651,-1.6658,-1.6657,-1.6661,-1.6661,-1.666,-1.666,0,-1.6437,-1.6452,-1.6475,-1.6497,-1.6503,-1.6515,-1.6533,-1.6544,-1.6555,-1.6572,-1.6577,-1.6593,-1.6609,-1.6622,-1.6643,-1.6648,-1.6665,-1.6667,-1.6659,-1.666,-1.6665,-1.6664,-1.6681,-1.6683,-1.6676,-1.6676,-1.6676,0,-1.6446,-1.6458,-1.6482,-1.6492,-1.6503,-1.6519,-1.653,-1.6544,-1.6555,-1.6574,-1.6583,-1.66,-1.6614,-1.6638,-1.6651,-1.6667,-1.6669,-1.6674,-1.6672,-1.6668,-1.6668,-1.6667,-1.6668,-1.6674,-1.6674,-1.6674,-1.6674,0,-1.6458,-1.6465,-1.6481,-1.65,-1.6513,-1.6528,-1.6543,-1.655,-1.6566,-1.6577,-1.6594,-1.6605,-1.6626,-1.6642,-1.6658,-1.6668,-1.6673,-1.6675,-1.6677,-1.6674,-1.6668,-1.6671,-1.6659,-1.6674,-1.6674,-1.6674,-1.6674,-1.6674,-1.6465,-1.6476,-1.6494,-1.6511,-1.6524,-1.6537,-1.6549,-1.6561,-1.6575,-1.6594,-1.6601,-1.6618,-1.6633,-1.6655,-1.6665,-1.6677,-1.6677,-1.6681,-1.6681,-1.6682,-1.6681,-1.6666,-1.668,-1.668,-1.668,-1.668,-1.668,0,-1.6477,-1.6489,-1.6505,-1.6525,-1.6538,-1.6543,-1.656,-1.657,-1.6585,-1.6599,-1.6613,-1.6631,-1.6646,-1.666,-1.6675,-1.6682,-1.6684,-1.6685,-1.6685,-1.6687,-1.668,-1.6677,-1.6683,-1.6683,-1.6683,-1.6683,-1.6683,-1.6683,-1.6485,-1.6503,-1.6512,-1.6536,-1.6547,-1.6565,-1.6573,-1.6585,-1.6596,-1.6617,-1.663,-1.6639,-1.6652,-1.6668,-1.6681,-1.6685,-1.669,-1.669,-1.6694,-1.6688,-1.6687,-1.6687,-1.6683,-1.6691,-1.6691,-1.6699,-1.6699,-1.6699]}]]